Location: Bannatyne
(13.0833°N, 59.5333°W)
Time: 06:22:21
(UTC+00:00)

Vanguard 2 Rocket - Pass Details

Date: 29 January 2020
Orbit: 554 x 3326 km, 32.9° (Epoch: 07 April)

Event Time Altitude Azimuth Distance (km) Brightness Sun altitude
Rises 16:42:02 0° 274° (W) 5,158 10.8 58.1°
Reaches altitude 10° 16:45:41 10° 263° (W) 4,547 10.8 57.8°
Maximum altitude 16:56:39 29° 210° (SSW) 4,139 11.5 57.0°
Drops below altitude 10° 17:11:41 10° 158° (SSE) 6,205 11.6 55.6°
Sets 17:18:03 0° 148° (SSE) 7,310 11.7 54.9°
